Time,TemperatureF,DewpointF,PressureIn,WindDirection,WindDirectionDegrees,WindSpeedMPH,WindSpeedGustMPH,Humidity,HourlyPrecipIn,Conditions,Clouds,dailyrainin,SoftwareType,DateUTC
2013-03-26 00:00:00,23.5,16.8,29.71,NE,45,0.0,0.0,75,0.00,,,-99.99,VWS V12.07,2013-03-26 05:00:00,
2013-03-26 00:05:00,23.3,16.6,29.71,NE,45,0.0,0.0,75,0.00,,,-99.99,VWS V12.07,2013-03-26 05:05:00,
2013-03-26 00:10:00,23.1,16.4,29.70,NE,45,0.0,0.0,75,0.00,,,-99.99,VWS V12.07,2013-03-26 05:10:00,
2013-03-26 00:15:00,23.1,16.4,29.70,NE,45,0.0,0.0,75,0.00,,,-99.99,VWS V12.07,2013-03-26 05:15:00,
2013-03-26 00:20:00,23.0,16.3,29.70,NE,45,0.0,0.0,75,0.00,,,-99.99,VWS V12.07,2013-03-26 05:20:00,
2013-03-26 00:25:00,22.8,16.1,29.70,NE,45,0.0,0.0,75,0.00,,,-99.99,VWS V12.07,2013-03-26 05:25:00,
2013-03-26 00:30:00,22.8,16.4,29.71,NE,45,0.0,0.0,76,0.00,,,-99.99,VWS V12.07,2013-03-26 05:30:00,
2013-03-26 00:35:00,22.6,16.2,29.70,NE,45,0.0,0.0,76,0.00,,,-99.99,VWS V12.07,2013-03-26 05:35:00,
2013-03-26 00:40:00,22.2,15.5,29.70,NE,45,0.0,0.0,75,0.00,,,-99.99,VWS V12.07,2013-03-26 05:40:00,
2013-03-26 00:45:00,22.2,15.5,29.70,NE,45,0.0,0.0,75,0.00,,,-99.99,VWS V12.07,2013-03-26 05:45:00,
2013-03-26 00:50:00,22.1,15.7,29.70,NE,45,0.0,0.0,76,0.00,,,-99.99,VWS V12.07,2013-03-26 05:50:00,
2013-03-26 00:55:00,21.9,15.5,29.70,NE,45,0.0,0.0,76,0.00,,,-99.99,VWS V12.07,2013-03-26 05:55:00,
2013-03-26 01:00:00,21.9,15.5,29.70,NE,45,0.0,0.0,76,0.00,,,-99.99,VWS V12.07,2013-03-26 06:00:00,
2013-03-26 01:05:00,21.9,15.5,29.70,NE,45,0.0,0.0,76,0.00,,,-99.99,VWS V12.07,2013-03-26 06:05:00,
2013-03-26 01:10:00,21.7,15.3,29.70,NE,45,0.0,0.0,76,0.00,,,-99.99,VWS V12.07,2013-03-26 06:10:00,
2013-03-26 01:15:00,21.7,15.3,29.71,NE,45,0.0,0.0,76,0.00,,,-99.99,VWS V12.07,2013-03-26 06:15:00,
2013-03-26 01:20:00,21.5,15.1,29.71,NE,45,0.0,0.0,76,0.00,,,-99.99,VWS V12.07,2013-03-26 06:20:00,
2013-03-26 01:25:00,21.3,14.9,29.71,NE,45,0.0,0.0,76,0.00,,,-99.99,VWS V12.07,2013-03-26 06:25:00,
2013-03-26 01:30:00,21.3,14.9,29.71,NE,45,0.0,0.0,76,0.00,,,-99.99,VWS V12.07,2013-03-26 06:30:00,
2013-03-26 01:35:00,21.3,14.9,29.70,NE,45,0.0,0.0,76,0.00,,,-99.99,VWS V12.07,2013-03-26 06:35:00,
2013-03-26 01:40:00,21.3,14.9,29.71,NE,45,0.0,0.0,76,0.00,,,-99.99,VWS V12.07,2013-03-26 06:40:00,
2013-03-26 01:45:00,21.3,14.9,29.71,NE,45,0.0,0.0,76,0.00,,,-99.99,VWS V12.07,2013-03-26 06:45:00,
2013-03-26 01:50:00,21.3,14.9,29.71,NE,45,0.0,0.0,76,0.00,,,-99.99,VWS V12.07,2013-03-26 06:50:00,
2013-03-26 01:55:00,21.0,14.9,29.71,NE,45,0.0,0.0,77,0.00,,,-99.99,VWS V12.07,2013-03-26 06:55:00,
2013-03-26 02:00:00,21.0,14.9,29.71,NE,45,0.0,0.0,77,0.00,,,-99.99,VWS V12.07,2013-03-26 07:00:00,
2013-03-26 02:05:00,21.0,14.9,29.71,NE,45,0.0,0.0,77,0.00,,,-99.99,VWS V12.07,2013-03-26 07:05:00,
2013-03-26 02:10:00,21.0,14.9,29.71,NE,45,0.0,0.0,77,0.00,,,-99.99,VWS V12.07,2013-03-26 07:10:00,
2013-03-26 02:15:00,21.0,14.9,29.71,NE,45,0.0,0.0,77,0.00,,,-99.99,VWS V12.07,2013-03-26 07:15:00,
2013-03-26 02:20:00,21.0,14.9,29.71,NE,45,0.0,0.0,77,0.00,,,-99.99,VWS V12.07,2013-03-26 07:20:00,
2013-03-26 02:25:00,21.0,14.9,29.71,NE,45,0.0,0.0,77,0.00,,,-99.99,VWS V12.07,2013-03-26 07:25:00,
2013-03-26 02:30:00,21.0,14.9,29.71,NE,45,0.0,0.0,77,0.00,,,-99.99,VWS V12.07,2013-03-26 07:30:00,
2013-03-26 02:35:00,21.0,14.9,29.70,NE,45,0.0,0.0,77,0.00,,,-99.99,VWS V12.07,2013-03-26 07:35:00,
2013-03-26 02:40:00,21.0,15.2,29.70,NE,45,0.0,0.0,78,0.00,,,-99.99,VWS V12.07,2013-03-26 07:40:00,
2013-03-26 02:45:00,21.0,15.2,29.70,NE,45,0.0,0.0,78,0.00,,,-99.99,VWS V12.07,2013-03-26 07:45:00,
2013-03-26 02:50:00,21.0,15.2,29.70,NE,45,0.0,0.0,78,0.00,,,-99.99,VWS V12.07,2013-03-26 07:50:00,
2013-03-26 02:55:00,21.0,15.2,29.70,NE,45,0.0,0.0,78,0.00,,,-99.99,VWS V12.07,2013-03-26 07:55:00,
2013-03-26 03:00:00,21.0,15.2,29.70,NE,45,0.0,0.0,78,0.00,,,-99.99,VWS V12.07,2013-03-26 08:00:00,
2013-03-26 03:05:00,21.0,15.2,29.70,NE,45,0.0,0.0,78,0.00,,,-99.99,VWS V12.07,2013-03-26 08:05:00,
2013-03-26 03:10:00,21.0,15.2,29.70,NE,45,0.0,0.0,78,0.00,,,-99.99,VWS V12.07,2013-03-26 08:10:00,
2013-03-26 03:15:00,21.0,15.2,29.70,NE,45,0.0,0.0,78,0.00,,,-99.99,VWS V12.07,2013-03-26 08:15:00,
2013-03-26 03:20:00,20.8,15.0,29.70,NE,45,0.0,0.0,78,0.00,,,-99.99,VWS V12.07,2013-03-26 08:20:00,
2013-03-26 03:25:00,21.0,15.2,29.70,NE,45,0.0,0.0,78,0.00,,,-99.99,VWS V12.07,2013-03-26 08:25:00,
2013-03-26 03:30:00,21.0,15.2,29.70,NE,45,0.0,0.0,78,0.00,,,-99.99,VWS V12.07,2013-03-26 08:30:00,
2013-03-26 03:35:00,21.0,15.2,29.70,NE,45,0.0,0.0,78,0.00,,,-99.99,VWS V12.07,2013-03-26 08:35:00,
2013-03-26 03:40:00,21.0,15.2,29.70,NE,45,0.0,0.0,78,0.00,,,-99.99,VWS V12.07,2013-03-26 08:40:00,
2013-03-26 03:45:00,21.0,15.2,29.70,NE,45,0.0,0.0,78,0.00,,,-99.99,VWS V12.07,2013-03-26 08:45:00,
2013-03-26 03:55:00,21.0,15.2,29.70,NE,45,0.0,0.0,78,0.00,,,-99.99,VWS V12.07,2013-03-26 08:55:00,
2013-03-26 04:00:00,21.0,15.2,29.70,NE,45,0.0,0.0,78,0.00,,,-99.99,VWS V12.07,2013-03-26 09:00:00,
2013-03-26 04:05:00,21.0,15.2,29.70,NE,45,0.0,0.0,78,0.00,,,-99.99,VWS V12.07,2013-03-26 09:05:00,
2013-03-26 04:10:00,21.0,15.5,29.70,NE,45,0.0,0.0,79,0.00,,,-99.99,VWS V12.07,2013-03-26 09:10:00,
2013-03-26 04:15:00,21.0,15.5,29.70,NE,45,0.0,0.0,79,0.00,,,-99.99,VWS V12.07,2013-03-26 09:15:00,
2013-03-26 04:20:00,21.0,15.5,29.70,NE,45,0.0,0.0,79,0.00,,,-99.99,VWS V12.07,2013-03-26 09:20:00,
2013-03-26 04:25:00,21.0,15.5,29.70,NE,45,0.0,0.0,79,0.00,,,-99.99,VWS V12.07,2013-03-26 09:25:00,
2013-03-26 04:30:00,21.0,15.5,29.70,NE,45,0.0,0.0,79,0.00,,,-99.99,VWS V12.07,2013-03-26 09:30:00,
2013-03-26 04:35:00,21.0,15.5,29.70,NE,45,0.0,0.0,79,0.00,,,-99.99,VWS V12.07,2013-03-26 09:35:00,
2013-03-26 04:40:00,21.0,15.5,29.70,NE,45,0.0,0.0,79,0.00,,,-99.99,VWS V12.07,2013-03-26 09:40:00,
2013-03-26 04:45:00,21.0,15.5,29.70,NE,45,0.0,0.0,79,0.00,,,-99.99,VWS V12.07,2013-03-26 09:45:00,
2013-03-26 04:50:00,21.0,15.5,29.70,NE,45,0.0,0.0,79,0.00,,,-99.99,VWS V12.07,2013-03-26 09:50:00,
2013-03-26 04:55:00,21.0,15.5,29.70,NE,45,0.0,0.0,79,0.00,,,-99.99,VWS V12.07,2013-03-26 09:55:00,
2013-03-26 05:00:00,21.0,15.5,29.70,NE,45,0.0,0.0,79,0.00,,,-99.99,VWS V12.07,2013-03-26 10:00:00,
2013-03-26 05:05:00,21.0,15.5,29.71,NE,45,0.0,0.0,79,0.00,,,-99.99,VWS V12.07,2013-03-26 10:05:00,
2013-03-26 05:10:00,21.0,15.5,29.71,NE,45,0.0,0.0,79,0.00,,,-99.99,VWS V12.07,2013-03-26 10:10:00,
2013-03-26 05:15:00,21.0,15.5,29.71,NE,45,0.0,0.0,79,0.00,,,-99.99,VWS V12.07,2013-03-26 10:15:00,
2013-03-26 05:20:00,21.2,15.7,29.71,NE,45,0.0,0.0,79,0.00,,,-99.99,VWS V12.07,2013-03-26 10:20:00,
2013-03-26 05:25:00,21.3,15.8,29.72,NE,45,0.0,0.0,79,0.00,,,-99.99,VWS V12.07,2013-03-26 10:25:00,
2013-03-26 05:30:00,21.3,16.1,29.71,NE,45,0.0,0.0,80,0.00,,,-99.99,VWS V12.07,2013-03-26 10:30:00,
2013-03-26 05:35:00,21.5,16.3,29.71,NE,45,0.0,0.0,80,0.00,,,-99.99,VWS V12.07,2013-03-26 10:35:00,
2013-03-26 05:40:00,21.7,16.5,29.71,NE,45,0.0,0.0,80,0.00,,,-99.99,VWS V12.07,2013-03-26 10:40:00,
2013-03-26 05:45:00,21.7,16.5,29.71,NE,45,0.0,0.0,80,0.00,,,-99.99,VWS V12.07,2013-03-26 10:45:00,
2013-03-26 05:50:00,21.7,16.5,29.71,NE,45,0.0,0.0,80,0.00,,,-99.99,VWS V12.07,2013-03-26 10:50:00,
2013-03-26 05:55:00,21.9,16.7,29.72,NE,45,0.0,0.0,80,0.00,,,-99.99,VWS V12.07,2013-03-26 10:55:00,
2013-03-26 06:00:00,21.9,17.0,29.72,NE,45,0.0,0.0,81,0.00,,,-99.99,VWS V12.07,2013-03-26 11:00:00,
2013-03-26 06:05:00,22.1,17.2,29.72,NE,45,0.0,0.0,81,0.00,,,-99.99,VWS V12.07,2013-03-26 11:05:00,
2013-03-26 06:10:00,22.2,17.3,29.72,NE,45,0.0,0.0,81,0.00,,,-99.99,VWS V12.07,2013-03-26 11:10:00,
2013-03-26 06:15:00,22.2,17.3,29.72,NE,45,0.0,0.0,81,0.00,,,-99.99,VWS V12.07,2013-03-26 11:15:00,
2013-03-26 06:20:00,22.4,17.5,29.72,NE,45,0.0,0.0,81,0.00,,,-99.99,VWS V12.07,2013-03-26 11:20:00,
2013-03-26 06:25:00,22.4,17.5,29.72,NE,45,0.0,0.0,81,0.00,,,-99.99,VWS V12.07,2013-03-26 11:25:00,
2013-03-26 06:30:00,22.6,17.7,29.72,NE,45,0.0,0.0,81,0.00,,,-99.99,VWS V12.07,2013-03-26 11:30:00,
2013-03-26 06:35:00,22.6,17.7,29.72,NE,45,0.0,0.0,81,0.00,,,-99.99,VWS V12.07,2013-03-26 11:35:00,
2013-03-26 06:45:00,22.6,17.7,29.73,NE,45,0.0,0.0,81,0.00,,,-99.99,VWS V12.07,2013-03-26 11:45:00,
2013-03-26 06:50:00,22.6,17.7,29.73,NE,45,0.0,0.0,81,0.00,,,-99.99,VWS V12.07,2013-03-26 11:50:00,
2013-03-26 06:55:00,22.6,17.7,29.73,NE,45,0.0,0.0,81,0.00,,,-99.99,VWS V12.07,2013-03-26 11:55:00,
2013-03-26 07:00:00,22.8,17.9,29.73,NE,45,0.0,0.0,81,0.00,,,-99.99,VWS V12.07,2013-03-26 12:00:00,
2013-03-26 07:05:00,22.8,17.9,29.73,NE,45,0.0,0.0,81,0.00,,,-99.99,VWS V12.07,2013-03-26 12:05:00,
2013-03-26 07:10:00,22.8,17.9,29.73,NE,45,0.0,0.0,81,0.00,,,-99.99,VWS V12.07,2013-03-26 12:10:00,
2013-03-26 07:15:00,22.8,17.9,29.73,NE,45,0.0,0.0,81,0.00,,,-99.99,VWS V12.07,2013-03-26 12:15:00,
2013-03-26 07:20:00,22.8,17.9,29.73,NE,45,0.0,0.0,81,0.00,,,-99.99,VWS V12.07,2013-03-26 12:20:00,
2013-03-26 07:25:00,22.8,17.9,29.73,NE,45,0.0,0.0,81,0.00,,,-99.99,VWS V12.07,2013-03-26 12:25:00,
2013-03-26 07:30:00,22.8,17.9,29.73,NE,45,0.0,0.0,81,0.00,,,-99.99,VWS V12.07,2013-03-26 12:30:00,
2013-03-26 07:35:00,22.8,17.9,29.73,NE,45,0.0,0.0,81,0.00,,,-99.99,VWS V12.07,2013-03-26 12:35:00,
2013-03-26 07:40:00,22.8,17.9,29.74,NE,45,0.0,0.0,81,0.00,,,-99.99,VWS V12.07,2013-03-26 12:40:00,
2013-03-26 07:50:00,23.1,18.1,29.73,NE,45,0.0,0.0,81,0.00,,,-99.99,VWS V12.07,2013-03-26 12:50:00,
2013-03-26 07:55:00,23.3,18.6,29.74,NE,45,0.0,0.0,82,0.00,,,-99.99,VWS V12.07,2013-03-26 12:55:00,
2013-03-26 08:00:00,23.5,18.8,29.74,NE,45,0.0,0.0,82,0.00,,,-99.99,VWS V12.07,2013-03-26 13:00:00,
2013-03-26 08:05:00,23.7,19.0,29.74,NNE,22,0.0,0.0,82,0.00,,,-99.99,VWS V12.07,2013-03-26 13:05:00,
2013-03-26 08:10:00,23.9,19.2,29.74,NNE,22,0.0,0.0,82,0.00,,,-99.99,VWS V12.07,2013-03-26 13:10:00,
2013-03-26 08:15:00,24.0,19.3,29.74,North,0,0.0,0.0,82,0.00,,,-99.99,VWS V12.07,2013-03-26 13:15:00,
2013-03-26 08:20:00,24.4,19.7,29.74,NNE,22,0.0,0.0,82,0.00,,,-99.99,VWS V12.07,2013-03-26 13:20:00,
2013-03-26 08:25:00,24.6,19.9,29.74,North,0,0.0,0.0,82,0.00,,,-99.99,VWS V12.07,2013-03-26 13:25:00,
2013-03-26 08:30:00,24.9,20.2,29.74,North,0,0.0,1.5,82,0.00,,,-99.99,VWS V12.07,2013-03-26 13:30:00,
2013-03-26 08:35:00,25.3,20.6,29.74,North,0,0.0,1.5,82,0.00,,,-99.99,VWS V12.07,2013-03-26 13:35:00,
2013-03-26 08:40:00,25.5,20.8,29.74,NNW,338,0.0,1.5,82,0.00,,,-99.99,VWS V12.07,2013-03-26 13:40:00,
2013-03-26 08:45:00,25.7,21.0,29.74,North,0,0.0,1.5,82,0.00,,,-99.99,VWS V12.07,2013-03-26 13:45:00,
2013-03-26 08:50:00,26.0,21.3,29.74,NNE,22,0.0,2.4,82,0.00,,,-99.99,VWS V12.07,2013-03-26 13:50:00,
2013-03-26 08:55:00,26.2,21.5,29.75,NNE,22,3.1,3.1,82,0.00,,,-99.99,VWS V12.07,2013-03-26 13:55:00,
2013-03-26 09:00:00,26.4,21.7,29.75,NNW,338,0.0,3.1,82,0.00,,,-99.99,VWS V12.07,2013-03-26 14:00:00,
2013-03-26 09:05:00,26.7,22.0,29.75,West,270,0.0,0.0,82,0.00,,,-99.99,VWS V12.07,2013-03-26 14:05:00,
2013-03-26 09:10:00,27.1,22.4,29.75,NNW,338,1.5,1.5,82,0.00,,,-99.99,VWS V12.07,2013-03-26 14:10:00,
2013-03-26 09:15:00,27.1,22.4,29.75,NE,45,4.9,4.9,82,0.00,,,-99.99,VWS V12.07,2013-03-26 14:15:00,
2013-03-26 09:25:00,27.6,22.5,29.75,WSW,248,1.5,3.5,81,0.00,,,-99.99,VWS V12.07,2013-03-26 14:25:00,
2013-03-26 09:30:00,28.0,22.9,29.75,North,0,4.6,4.6,81,0.00,,,-99.99,VWS V12.07,2013-03-26 14:30:00,
2013-03-26 09:35:00,28.2,23.1,29.75,NW,315,0.0,1.3,81,0.00,,,-99.99,VWS V12.07,2013-03-26 14:35:00,
2013-03-26 09:40:00,28.5,23.4,29.75,NW,315,0.0,1.3,81,0.00,,,-99.99,VWS V12.07,2013-03-26 14:40:00,
2013-03-26 09:45:00,28.9,23.5,29.75,NNE,22,0.0,3.1,80,0.00,,,-99.99,VWS V12.07,2013-03-26 14:45:00,
2013-03-26 09:50:00,29.1,23.7,29.75,NW,315,0.0,0.2,80,0.00,,,-99.99,VWS V12.07,2013-03-26 14:50:00,
2013-03-26 09:55:00,29.4,24.0,29.75,NNW,338,0.0,0.2,80,0.00,,,-99.99,VWS V12.07,2013-03-26 14:55:00,
2013-03-26 10:00:00,29.8,24.4,29.75,NE,45,7.1,7.1,80,0.00,,,-99.99,VWS V12.07,2013-03-26 15:00:00,
2013-03-26 10:05:00,30.0,24.3,29.75,NNE,22,3.5,3.5,79,0.00,,,-99.99,VWS V12.07,2013-03-26 15:05:00,
2013-03-26 10:10:00,30.3,24.6,29.76,NE,45,1.1,3.5,79,0.00,,,-99.99,VWS V12.07,2013-03-26 15:10:00,
2013-03-26 10:15:00,30.5,24.5,29.76,NNE,22,1.7,3.5,78,0.00,,,-99.99,VWS V12.07,2013-03-26 15:15:00,
2013-03-26 10:20:00,30.7,24.7,29.76,WNW,292,0.0,0.0,78,0.00,,,-99.99,VWS V12.07,2013-03-26 15:20:00,
2013-03-26 10:25:00,30.9,24.9,29.76,WNW,292,0.0,0.0,78,0.00,,,-99.99,VWS V12.07,2013-03-26 15:25:00,
2013-03-26 10:30:00,31.2,25.1,29.76,NNE,22,0.0,0.0,78,0.00,,,-99.99,VWS V12.07,2013-03-26 15:30:00,
2013-03-26 10:35:00,31.6,25.2,29.76,NNE,22,3.5,3.5,77,0.00,,,-99.99,VWS V12.07,2013-03-26 15:35:00,
2013-03-26 10:40:00,31.8,25.4,29.76,ENE,68,4.2,4.2,77,0.00,,,-99.99,VWS V12.07,2013-03-26 15:40:00,
2013-03-26 10:45:00,31.8,25.1,29.76,NE,45,6.4,6.4,76,0.00,,,-99.99,VWS V12.07,2013-03-26 15:45:00,
2013-03-26 10:50:00,32.0,25.3,29.76,NW,315,2.6,2.6,76,0.00,,,-99.99,VWS V12.07,2013-03-26 15:50:00,
2013-03-26 10:55:00,32.1,25.4,29.76,NNW,338,0.0,2.6,76,0.00,,,-99.99,VWS V12.07,2013-03-26 15:55:00,
2013-03-26 11:00:00,32.3,25.6,29.76,NE,45,1.7,2.6,76,0.00,,,-99.99,VWS V12.07,2013-03-26 16:00:00,
2013-03-26 11:05:00,32.9,26.2,29.76,West,270,0.0,4.4,76,0.00,,,-99.99,VWS V12.07,2013-03-26 16:05:00,
2013-03-26 11:10:00,33.0,26.0,29.76,NNW,338,0.8,4.4,75,0.00,,,-99.99,VWS V12.07,2013-03-26 16:10:00,
2013-03-26 11:15:00,33.4,26.3,29.76,WSW,248,3.3,5.5,75,0.00,,,-99.99,VWS V12.07,2013-03-26 16:15:00,
2013-03-26 11:20:00,33.6,26.2,29.76,NNE,22,0.0,3.5,74,0.00,,,-99.99,VWS V12.07,2013-03-26 16:20:00,
2013-03-26 11:25:00,33.6,25.9,29.76,WNW,292,2.9,5.3,73,0.00,,,-99.99,VWS V12.07,2013-03-26 16:25:00,
2013-03-26 11:30:00,33.6,25.9,29.76,NE,45,5.8,5.8,73,0.00,,,-99.99,VWS V12.07,2013-03-26 16:30:00,
2013-03-26 11:35:00,33.9,26.2,29.77,NE,45,5.8,7.6,73,0.00,,,-99.99,VWS V12.07,2013-03-26 16:35:00,
2013-03-26 11:40:00,33.9,25.8,29.76,NE,45,2.0,7.6,72,0.00,,,-99.99,VWS V12.07,2013-03-26 16:40:00,
2013-03-26 11:45:00,34.1,26.0,29.76,NE,45,4.6,9.1,72,0.00,,,-99.99,VWS V12.07,2013-03-26 16:45:00,
2013-03-26 11:50:00,34.3,25.9,29.76,NE,45,2.0,2.9,71,0.00,,,-99.99,VWS V12.07,2013-03-26 16:50:00,
2013-03-26 11:55:00,34.3,25.9,29.76,NW,315,5.1,5.1,71,0.00,,,-99.99,VWS V12.07,2013-03-26 16:55:00,
2013-03-26 12:00:00,34.3,25.9,29.76,NE,45,8.2,8.2,71,0.00,,,-99.99,VWS V12.07,2013-03-26 17:00:00,
2013-03-26 12:05:00,34.7,26.3,29.76,NNE,22,0.0,2.2,71,0.00,,,-99.99,VWS V12.07,2013-03-26 17:05:00,
2013-03-26 12:10:00,34.8,26.4,29.76,NE,45,6.0,6.0,71,0.00,,,-99.99,VWS V12.07,2013-03-26 17:10:00,
2013-03-26 12:15:00,35.2,26.4,29.76,WNW,292,3.3,6.0,70,0.00,,,-99.99,VWS V12.07,2013-03-26 17:15:00,
2013-03-26 12:20:00,35.2,26.1,29.76,NE,45,0.6,5.5,69,0.00,,,-99.99,VWS V12.07,2013-03-26 17:20:00,
2013-03-26 12:25:00,35.4,26.3,29.76,NE,45,5.1,5.5,69,0.00,,,-99.99,VWS V12.07,2013-03-26 17:25:00,
2013-03-26 12:30:00,35.4,26.3,29.76,NE,45,2.0,5.5,69,0.00,,,-99.99,VWS V12.07,2013-03-26 17:30:00,
2013-03-26 12:35:00,35.7,26.2,29.76,NE,45,0.0,3.3,68,0.00,,,-99.99,VWS V12.07,2013-03-26 17:35:00,
2013-03-26 12:40:00,35.9,26.0,29.76,NNW,338,2.4,5.3,67,0.00,,,-99.99,VWS V12.07,2013-03-26 17:40:00,
2013-03-26 12:45:00,36.1,25.9,29.76,NE,45,3.8,5.3,66,0.00,,,-99.99,VWS V12.07,2013-03-26 17:45:00,
2013-03-26 12:50:00,36.1,25.9,29.76,NW,315,3.5,4.2,66,0.00,,,-99.99,VWS V12.07,2013-03-26 17:50:00,
2013-03-26 12:55:00,36.1,25.5,29.76,NNE,22,0.0,4.2,65,0.00,,,-99.99,VWS V12.07,2013-03-26 17:55:00,
2013-03-26 13:00:00,36.1,25.5,29.76,NE,45,3.5,4.2,65,0.00,,,-99.99,VWS V12.07,2013-03-26 18:00:00,
2013-03-26 13:05:00,36.3,25.7,29.76,NNW,338,0.0,5.1,65,0.00,,,-99.99,VWS V12.07,2013-03-26 18:05:00,
2013-03-26 13:10:00,36.3,25.3,29.76,North,0,1.7,5.1,64,0.00,,,-99.99,VWS V12.07,2013-03-26 18:10:00,
2013-03-26 13:15:00,36.1,24.7,29.75,NE,45,1.7,6.2,63,0.00,,,-99.99,VWS V12.07,2013-03-26 18:15:00,
2013-03-26 13:20:00,36.3,24.9,29.76,NE,45,6.0,6.0,63,0.00,,,-99.99,VWS V12.07,2013-03-26 18:20:00,
2013-03-26 13:25:00,36.3,24.9,29.76,NNE,22,5.1,6.0,63,0.00,,,-99.99,VWS V12.07,2013-03-26 18:25:00,
2013-03-26 13:30:00,36.3,24.9,29.76,NE,45,6.2,6.2,63,0.00,,,-99.99,VWS V12.07,2013-03-26 18:30:00,
2013-03-26 13:35:00,36.3,24.5,29.75,NNW,338,0.2,6.9,62,0.00,,,-99.99,VWS V12.07,2013-03-26 18:35:00,
2013-03-26 13:40:00,36.3,24.1,29.75,NNE,22,0.0,6.9,61,0.00,,,-99.99,VWS V12.07,2013-03-26 18:40:00,
2013-03-26 13:45:00,36.1,24.0,29.76,NE,45,4.0,6.9,61,0.00,,,-99.99,VWS V12.07,2013-03-26 18:45:00,
2013-03-26 13:50:00,36.1,24.0,29.75,NE,45,4.0,5.5,61,0.00,,,-99.99,VWS V12.07,2013-03-26 18:50:00,
2013-03-26 13:55:00,35.9,23.8,29.75,NE,45,0.0,5.5,61,0.00,,,-99.99,VWS V12.07,2013-03-26 18:55:00,
2013-03-26 14:00:00,35.9,23.8,29.75,NNW,338,2.0,5.5,61,0.00,,,-99.99,VWS V12.07,2013-03-26 19:00:00,
2013-03-26 14:05:00,36.1,23.6,29.75,NE,45,0.0,5.5,60,0.00,,,-99.99,VWS V12.07,2013-03-26 19:05:00,
2013-03-26 14:10:00,36.1,23.6,29.75,NW,315,0.0,5.5,60,0.00,,,-99.99,VWS V12.07,2013-03-26 19:10:00,
2013-03-26 14:15:00,36.1,23.6,29.75,NE,45,0.0,5.5,60,0.00,,,-99.99,VWS V12.07,2013-03-26 19:15:00,
2013-03-26 14:20:00,36.1,23.2,29.75,NNE,22,0.0,0.0,59,0.00,,,-99.99,VWS V12.07,2013-03-26 19:20:00,
2013-03-26 14:25:00,36.3,23.4,29.75,West,270,0.0,0.0,59,0.00,,,-99.99,VWS V12.07,2013-03-26 19:25:00,
2013-03-26 14:30:00,36.3,23.0,29.75,West,270,0.0,0.0,58,0.00,,,-99.99,VWS V12.07,2013-03-26 19:30:00,
2013-03-26 14:35:00,36.3,22.5,29.75,NNE,22,5.1,6.2,57,0.00,,,-99.99,VWS V12.07,2013-03-26 19:35:00,
2013-03-26 14:40:00,36.1,22.4,29.75,West,270,0.0,6.2,57,0.00,,,-99.99,VWS V12.07,2013-03-26 19:40:00,
2013-03-26 14:45:00,35.9,22.2,29.75,NNE,22,0.0,6.2,57,0.00,,,-99.99,VWS V12.07,2013-03-26 19:45:00,
2013-03-26 14:50:00,35.7,21.6,29.75,NE,45,3.8,6.0,56,0.00,,,-99.99,VWS V12.07,2013-03-26 19:50:00,
2013-03-26 14:55:00,35.7,22.0,29.75,NE,45,4.4,6.0,57,0.00,,,-99.99,VWS V12.07,2013-03-26 19:55:00,
2013-03-26 15:00:00,35.7,21.6,29.75,NNE,22,0.0,6.0,56,0.00,,,-99.99,VWS V12.07,2013-03-26 20:00:00,
2013-03-26 15:05:00,35.7,22.0,29.75,West,270,0.0,0.0,57,0.00,,,-99.99,VWS V12.07,2013-03-26 20:05:00,
2013-03-26 15:10:00,35.7,21.6,29.75,NE,45,0.0,0.0,56,0.00,,,-99.99,VWS V12.07,2013-03-26 20:10:00,
2013-03-26 15:15:00,35.7,21.6,29.75,NNE,22,0.0,3.3,56,0.00,,,-99.99,VWS V12.07,2013-03-26 20:15:00,
2013-03-26 15:20:00,35.7,21.6,29.75,NE,45,0.0,0.0,56,0.00,,,-99.99,VWS V12.07,2013-03-26 20:20:00,
2013-03-26 15:25:00,35.4,21.7,29.75,NNW,338,0.0,6.0,57,0.00,,,-99.99,VWS V12.07,2013-03-26 20:25:00,
2013-03-26 15:30:00,35.4,21.7,29.75,NNE,22,6.9,6.9,57,0.00,,,-99.99,VWS V12.07,2013-03-26 20:30:00,
2013-03-26 15:35:00,35.2,21.5,29.75,West,270,0.0,0.0,57,0.00,,,-99.99,VWS V12.07,2013-03-26 20:35:00,
2013-03-26 15:40:00,35.2,21.5,29.75,NNE,22,0.0,6.0,57,0.00,,,-99.99,VWS V12.07,2013-03-26 20:40:00,
2013-03-26 15:45:00,34.8,21.1,29.75,NE,45,0.0,6.0,57,0.00,,,-99.99,VWS V12.07,2013-03-26 20:45:00,
2013-03-26 15:50:00,34.8,21.5,29.75,NE,45,0.0,2.4,58,0.00,,,-99.99,VWS V12.07,2013-03-26 20:50:00,
2013-03-26 15:55:00,34.8,21.5,29.75,WNW,292,0.0,2.4,58,0.00,,,-99.99,VWS V12.07,2013-03-26 20:55:00,
2013-03-26 16:00:00,35.2,22.3,29.75,NE,45,0.0,5.3,59,0.00,,,-99.99,VWS V12.07,2013-03-26 21:00:00,
2013-03-26 16:05:00,35.4,22.5,29.75,NNE,22,0.0,2.9,59,0.00,,,-99.99,VWS V12.07,2013-03-26 21:05:00,
2013-03-26 16:10:00,35.4,22.1,29.75,West,270,0.0,7.8,58,0.00,,,-99.99,VWS V12.07,2013-03-26 21:10:00,
2013-03-26 16:15:00,35.4,22.1,29.75,NE,45,6.7,7.8,58,0.00,,,-99.99,VWS V12.07,2013-03-26 21:15:00,
2013-03-26 16:20:00,35.4,22.1,29.75,West,270,0.0,3.8,58,0.00,,,-99.99,VWS V12.07,2013-03-26 21:20:00,
2013-03-26 16:25:00,35.4,22.1,29.75,NNW,338,0.0,3.8,58,0.00,,,-99.99,VWS V12.07,2013-03-26 21:25:00,
2013-03-26 16:30:00,35.4,21.7,29.75,West,270,5.3,5.3,57,0.00,,,-99.99,VWS V12.07,2013-03-26 21:30:00,
2013-03-26 16:35:00,35.4,21.7,29.75,NW,315,1.7,1.7,57,0.00,,,-99.99,VWS V12.07,2013-03-26 21:35:00,
2013-03-26 16:40:00,35.2,21.5,29.75,NNE,22,0.0,1.7,57,0.00,,,-99.99,VWS V12.07,2013-03-26 21:40:00,
2013-03-26 16:45:00,35.4,22.1,29.75,NE,45,0.0,1.7,58,0.00,,,-99.99,VWS V12.07,2013-03-26 21:45:00,
2013-03-26 16:50:00,35.4,22.1,29.75,NE,45,6.2,6.2,58,0.00,,,-99.99,VWS V12.07,2013-03-26 21:50:00,
2013-03-26 16:55:00,35.4,22.1,29.75,NNE,22,0.0,6.2,58,0.00,,,-99.99,VWS V12.07,2013-03-26 21:55:00,
2013-03-26 17:00:00,35.2,21.9,29.75,West,270,6.0,6.2,58,0.00,,,-99.99,VWS V12.07,2013-03-26 22:00:00,
2013-03-26 17:05:00,35.2,21.9,29.76,NNE,22,0.0,0.0,58,0.00,,,-99.99,VWS V12.07,2013-03-26 22:05:00,
2013-03-26 17:10:00,34.8,22.0,29.76,West,270,0.0,2.4,59,0.00,,,-99.99,VWS V12.07,2013-03-26 22:10:00,
2013-03-26 17:15:00,34.7,21.9,29.76,NNE,22,0.0,2.4,59,0.00,,,-99.99,VWS V12.07,2013-03-26 22:15:00,
2013-03-26 17:20:00,34.3,21.5,29.76,WSW,248,0.0,5.5,59,0.00,,,-99.99,VWS V12.07,2013-03-26 22:20:00,
2013-03-26 17:25:00,34.3,21.9,29.76,NNE,22,0.0,5.5,60,0.00,,,-99.99,VWS V12.07,2013-03-26 22:25:00,
2013-03-26 17:30:00,34.3,21.9,29.76,NNW,338,0.0,5.5,60,0.00,,,-99.99,VWS V12.07,2013-03-26 22:30:00,
2013-03-26 17:35:00,34.3,21.9,29.76,North,0,0.0,3.1,60,0.00,,,-99.99,VWS V12.07,2013-03-26 22:35:00,
2013-03-26 17:40:00,34.1,21.3,29.76,NE,45,4.2,4.2,59,0.00,,,-99.99,VWS V12.07,2013-03-26 22:40:00,
2013-03-26 17:45:00,33.8,21.0,29.76,WNW,292,0.0,4.2,59,0.00,,,-99.99,VWS V12.07,2013-03-26 22:45:00,
2013-03-26 17:50:00,33.6,20.8,29.77,NNW,338,0.0,0.0,59,0.00,,,-99.99,VWS V12.07,2013-03-26 22:50:00,
2013-03-26 18:00:00,33.4,21.0,29.77,West,270,0.0,0.0,60,0.00,,,-99.99,VWS V12.07,2013-03-26 23:00:00,
2013-03-26 18:05:00,33.4,21.4,29.77,ENE,68,0.0,0.0,61,0.00,,,-99.99,VWS V12.07,2013-03-26 23:05:00,
2013-03-26 18:10:00,33.0,21.0,29.77,ENE,68,0.0,0.0,61,0.00,,,-99.99,VWS V12.07,2013-03-26 23:10:00,
2013-03-26 18:15:00,33.0,21.4,29.77,ENE,68,0.0,0.0,62,0.00,,,-99.99,VWS V12.07,2013-03-26 23:15:00,
2013-03-26 18:20:00,32.9,21.3,29.77,ENE,68,0.0,0.0,62,0.00,,,-99.99,VWS V12.07,2013-03-26 23:20:00,
2013-03-26 18:25:00,32.7,21.1,29.77,NNE,22,0.0,0.0,62,0.00,,,-99.99,VWS V12.07,2013-03-26 23:25:00,
2013-03-26 18:30:00,32.7,21.5,29.77,NW,315,0.0,0.0,63,0.00,,,-99.99,VWS V12.07,2013-03-26 23:30:00,
2013-03-26 18:35:00,32.5,21.3,29.77,NW,315,0.0,0.0,63,0.00,,,-99.99,VWS V12.07,2013-03-26 23:35:00,
2013-03-26 18:40:00,32.5,21.3,29.77,NNW,338,0.0,0.0,63,0.00,,,-99.99,VWS V12.07,2013-03-26 23:40:00,
2013-03-26 18:45:00,32.3,21.1,29.78,WNW,292,0.0,0.0,63,0.00,,,-99.99,VWS V12.07,2013-03-26 23:45:00,
2013-03-26 18:50:00,32.1,20.9,29.78,WNW,292,0.0,4.4,63,0.00,,,-99.99,VWS V12.07,2013-03-26 23:50:00,
2013-03-26 18:55:00,31.8,20.7,29.78,NW,315,0.0,4.4,63,0.00,,,-99.99,VWS V12.07,2013-03-26 23:55:00,
2013-03-26 19:00:00,31.8,20.7,29.78,North,0,0.0,4.4,63,0.00,,,-99.99,VWS V12.07,2013-03-27 00:00:00,
2013-03-26 19:05:00,31.6,20.8,29.77,NE,45,0.0,0.0,64,0.00,,,-99.99,VWS V12.07,2013-03-27 00:05:00,
2013-03-26 19:10:00,31.6,20.8,29.78,NE,45,0.0,0.0,64,0.00,,,-99.99,VWS V12.07,2013-03-27 00:10:00,
2013-03-26 19:15:00,31.2,20.5,29.77,NE,45,1.5,1.5,64,0.00,,,-99.99,VWS V12.07,2013-03-27 00:15:00,
2013-03-26 19:20:00,31.2,20.5,29.78,NE,45,0.0,1.5,64,0.00,,,-99.99,VWS V12.07,2013-03-27 00:20:00,
2013-03-26 19:25:00,31.2,20.8,29.78,NE,45,0.0,1.5,65,0.00,,,-99.99,VWS V12.07,2013-03-27 00:25:00,
2013-03-26 19:30:00,31.1,20.7,29.78,NE,45,0.0,1.5,65,0.00,,,-99.99,VWS V12.07,2013-03-27 00:30:00,
2013-03-26 19:35:00,30.9,20.5,29.78,NE,45,0.0,0.0,65,0.00,,,-99.99,VWS V12.07,2013-03-27 00:35:00,
2013-03-26 19:40:00,30.9,20.5,29.78,NE,45,0.0,0.0,65,0.00,,,-99.99,VWS V12.07,2013-03-27 00:40:00,
2013-03-26 19:45:00,30.7,20.3,29.78,NE,45,0.0,0.0,65,0.00,,,-99.99,VWS V12.07,2013-03-27 00:45:00,
2013-03-26 19:50:00,30.7,20.7,29.78,NE,45,0.0,0.0,66,0.00,,,-99.99,VWS V12.07,2013-03-27 00:50:00,
2013-03-26 19:55:00,30.7,20.7,29.78,NE,45,0.0,0.0,66,0.00,,,-99.99,VWS V12.07,2013-03-27 00:55:00,
2013-03-26 20:00:00,30.7,20.7,29.78,NE,45,0.0,0.0,66,0.00,,,-99.99,VWS V12.07,2013-03-27 01:00:00,
2013-03-26 20:05:00,30.5,20.5,29.78,NE,45,0.0,0.0,66,0.00,,,-99.99,VWS V12.07,2013-03-27 01:05:00,
2013-03-26 20:10:00,30.3,20.3,29.78,NE,45,0.0,0.0,66,0.00,,,-99.99,VWS V12.07,2013-03-27 01:10:00,
2013-03-26 20:15:00,30.3,20.3,29.78,NE,45,0.0,0.0,66,0.00,,,-99.99,VWS V12.07,2013-03-27 01:15:00,
2013-03-26 20:20:00,30.2,20.2,29.78,NE,45,0.0,0.0,66,0.00,,,-99.99,VWS V12.07,2013-03-27 01:20:00,
2013-03-26 20:25:00,30.0,20.0,29.78,NE,45,0.0,0.0,66,0.00,,,-99.99,VWS V12.07,2013-03-27 01:25:00,
2013-03-26 20:30:00,30.0,20.0,29.78,NE,45,0.0,0.0,66,0.00,,,-99.99,VWS V12.07,2013-03-27 01:30:00,
2013-03-26 20:35:00,30.0,20.4,29.78,NE,45,0.0,0.0,67,0.00,,,-99.99,VWS V12.07,2013-03-27 01:35:00,
2013-03-26 20:40:00,29.8,20.2,29.78,NE,45,0.0,0.0,67,0.00,,,-99.99,VWS V12.07,2013-03-27 01:40:00,
2013-03-26 20:45:00,29.6,20.0,29.78,NE,45,0.0,0.0,67,0.00,,,-99.99,VWS V12.07,2013-03-27 01:45:00,
2013-03-26 20:50:00,29.4,19.8,29.78,NE,45,0.0,0.0,67,0.00,,,-99.99,VWS V12.07,2013-03-27 01:50:00,
2013-03-26 20:55:00,29.3,19.7,29.79,NE,45,0.0,0.0,67,0.00,,,-99.99,VWS V12.07,2013-03-27 01:55:00,
2013-03-26 21:00:00,29.1,19.5,29.79,NE,45,0.0,0.0,67,0.00,,,-99.99,VWS V12.07,2013-03-27 02:00:00,
2013-03-26 21:05:00,29.1,19.9,29.79,NE,45,0.0,0.0,68,0.00,,,-99.99,VWS V12.07,2013-03-27 02:05:00,
2013-03-26 21:10:00,28.9,19.7,29.79,NE,45,0.0,0.0,68,0.00,,,-99.99,VWS V12.07,2013-03-27 02:10:00,
2013-03-26 21:15:00,28.7,19.5,29.79,NE,45,0.0,0.0,68,0.00,,,-99.99,VWS V12.07,2013-03-27 02:15:00,
2013-03-26 21:20:00,28.5,19.3,29.79,NE,45,0.0,0.0,68,0.00,,,-99.99,VWS V12.07,2013-03-27 02:20:00,
2013-03-26 21:25:00,28.5,19.3,29.79,NE,45,0.0,0.0,68,0.00,,,-99.99,VWS V12.07,2013-03-27 02:25:00,
2013-03-26 21:30:00,28.2,19.0,29.79,NE,45,0.0,0.0,68,0.00,,,-99.99,VWS V12.07,2013-03-27 02:30:00,
2013-03-26 21:35:00,28.2,19.0,29.79,NE,45,0.0,0.0,68,0.00,,,-99.99,VWS V12.07,2013-03-27 02:35:00,
2013-03-26 21:40:00,28.0,18.8,29.79,NE,45,0.0,0.0,68,0.00,,,-99.99,VWS V12.07,2013-03-27 02:40:00,
2013-03-26 21:45:00,28.0,18.8,29.80,NE,45,0.0,0.0,68,0.00,,,-99.99,VWS V12.07,2013-03-27 02:45:00,
2013-03-26 21:50:00,27.8,18.6,29.79,NE,45,0.0,0.0,68,0.00,,,-99.99,VWS V12.07,2013-03-27 02:50:00,
2013-03-26 21:55:00,27.6,18.8,29.79,NE,45,0.0,0.0,69,0.00,,,-99.99,VWS V12.07,2013-03-27 02:55:00,
2013-03-26 22:00:00,27.6,18.8,29.79,NE,45,0.0,0.0,69,0.00,,,-99.99,VWS V12.07,2013-03-27 03:00:00,
2013-03-26 22:05:00,27.6,18.8,29.79,NE,45,0.0,0.0,69,0.00,,,-99.99,VWS V12.07,2013-03-27 03:05:00,
2013-03-26 22:10:00,27.6,18.8,29.79,NE,45,0.0,0.0,69,0.00,,,-99.99,VWS V12.07,2013-03-27 03:10:00,
2013-03-26 22:15:00,27.5,18.7,29.79,NE,45,0.0,0.0,69,0.00,,,-99.99,VWS V12.07,2013-03-27 03:15:00,
2013-03-26 22:20:00,27.5,18.7,29.80,NE,45,0.0,0.0,69,0.00,,,-99.99,VWS V12.07,2013-03-27 03:20:00,
2013-03-26 22:25:00,27.3,18.5,29.80,NE,45,0.0,0.0,69,0.00,,,-99.99,VWS V12.07,2013-03-27 03:25:00,
2013-03-26 22:30:00,27.3,18.5,29.79,NE,45,0.0,0.0,69,0.00,,,-99.99,VWS V12.07,2013-03-27 03:30:00,
2013-03-26 22:35:00,27.1,18.3,29.79,NE,45,0.0,0.0,69,0.00,,,-99.99,VWS V12.07,2013-03-27 03:35:00,
2013-03-26 22:40:00,27.1,18.3,29.80,NE,45,0.0,0.0,69,0.00,,,-99.99,VWS V12.07,2013-03-27 03:40:00,
2013-03-26 22:45:00,27.1,18.3,29.80,NE,45,0.0,0.0,69,0.00,,,-99.99,VWS V12.07,2013-03-27 03:45:00,
2013-03-26 22:55:00,26.9,18.4,29.79,NE,45,0.0,0.0,70,0.00,,,-99.99,VWS V12.07,2013-03-27 03:55:00,
2013-03-26 23:00:00,27.1,18.6,29.80,NE,45,0.0,0.0,70,0.00,,,-99.99,VWS V12.07,2013-03-27 04:00:00,
2013-03-26 23:05:00,27.1,18.6,29.79,NE,45,0.0,0.0,70,0.00,,,-99.99,VWS V12.07,2013-03-27 04:05:00,
2013-03-26 23:10:00,27.1,18.6,29.79,NE,45,0.0,0.0,70,0.00,,,-99.99,VWS V12.07,2013-03-27 04:10:00,
2013-03-26 23:15:00,27.1,18.6,29.79,NE,45,0.0,0.0,70,0.00,,,-99.99,VWS V12.07,2013-03-27 04:15:00,
2013-03-26 23:20:00,27.1,18.6,29.79,NE,45,0.0,0.0,70,0.00,,,-99.99,VWS V12.07,2013-03-27 04:20:00,
2013-03-26 23:25:00,27.1,18.6,29.79,NE,45,0.0,0.0,70,0.00,,,-99.99,VWS V12.07,2013-03-27 04:25:00,
2013-03-26 23:30:00,27.1,18.6,29.79,NE,45,0.0,0.0,70,0.00,,,-99.99,VWS V12.07,2013-03-27 04:30:00,
2013-03-26 23:35:00,27.1,18.6,29.79,NE,45,0.0,0.0,70,0.00,,,-99.99,VWS V12.07,2013-03-27 04:35:00,
2013-03-26 23:40:00,27.1,18.6,29.79,NE,45,0.0,0.0,70,0.00,,,-99.99,VWS V12.07,2013-03-27 04:40:00,
2013-03-26 23:45:00,27.1,18.6,29.80,NE,45,0.0,0.0,70,0.00,,,-99.99,VWS V12.07,2013-03-27 04:45:00,
2013-03-26 23:50:00,27.1,19.0,29.79,NE,45,0.0,0.0,71,0.00,,,-99.99,VWS V12.07,2013-03-27 04:50:00,
2013-03-26 23:55:00,26.9,18.8,29.80,NE,45,0.0,0.0,71,0.00,,,-99.99,VWS V12.07,2013-03-27 04:55:00,